Location: Dürabuch
(48.2640°N, 11.2185°E)
Time: 09:34:35
(UTC+00:00)

Cosmos 1455 - Pass Details

Date: 23 May 2024
Orbit: 445 x 461 km, 82.5° (Epoch: 15 June)

Event Time Altitude Azimuth Distance (km) Brightness Sun altitude
Rises 02:00:46 0° 329° (NNW) 2,459 5.9 -11.4°
Maximum altitude 02:05:09 11° 276° (W) 1,534 4.3 -11.0°
Enters shadow 02:05:58 10° 262° (W) 1,575 4.2 -10.9°
